Location: Goettingen
(51.5300°N, 9.9433°E)
Time: 11:58:09
(UTC+02:00)

ISS - Pass Details

Date: 20 May 2019
Orbit: 407 x 410 km, 51.6° (Epoch: 21 May)

Event Time Altitude Azimuth Distance (km) Brightness Sun altitude
Rises 01:13:25 0° 274° (W) 2,336 0.1 -18.6°
Reaches altitude 10° 01:15:30 10° 275° (W) 1,475 -0.9 -18.6°
Maximum altitude 01:18:49 88° 358° (N) 415 -3.9 -18.6°
Drops below altitude 10° 01:22:08 10° 95° (E) 1,475 -1.0 -18.6°
Sets 01:24:13 0° 95° (E) 2,336 0.0 -18.6°
